Weather History for Durango, Mexico

Change the Weather History Date:

Wednesday, December 5, 2012

  Actual Average Record
Temperature  
Mean Temperature 56 °F -  
Max Temperature 76 °F 70 °F 78 °F (2006)
Min Temperature 37 °F 31 °F 26 °F (2010)
Degree Days  
Heating Degree Days 8    
Growing Degree Days 6 (Base 50)    
Moisture  
Dew Point 30 °F    
Average Humidity 37    
Maximum Humidity 81    
Minimum Humidity 14    
Precipitation  
Precipitation 0.00 in - - ()
Sea Level Pressure  
Sea Level Pressure 30.17 in    
Wind  
Wind Speed 1 mph ()    
Max Wind Speed 6 mph    
Max Gust Speed -    
Visibility 12.1 miles    
Events      
Averages and records for this station are not official NWS values.
T = Trace of Precipitation, MM = Missing Value Source: Averaged Metar Reports

Daily Weather History Graph

Daily Weather History Graph

Search for Another Location

Airport:

Trip Planner

Search our weather history database for the weather conditions in past years. The results will help you decide how hot, cold, wet, or windy it might be!

Date:

Astronomy

Dec. 05, 2012 Rise Set
Actual Time 7:27 AM CST 6:10 PM CST
Civil Twilight 7:02 AM CST 6:35 PM CST
Nautical Twilight 6:34 AM CST 7:03 PM CST
Astronomical Twilight 6:07 AM CST 7:30 PM CST
Moon No Moon Rise 12:21 PM CST (12/5)
Length of Visible Light 11h 32m
Length of Day
10h 42m
Waning Gibbous, 59% of the Moon is Illuminated
Dec 5
Waning Gibbous
Dec 6
Last Quarter
Dec 13
New
Dec 19
First Quarter
Dec 28
Full

Hourly Weather History & Observations

Time (CST) Temp. Dew Point Humidity Pressure Visibility Wind Dir Wind Speed Gust Speed Precip Events Conditions
2:55 AM 46 °F 34 °F 51% 30.08 in 6 mi Calm Calm - -  
5:55 AM 40 °F 32 °F 63% 30.17 in 6 mi Calm Calm - -  
5:56 AM 33.8 °F 28.4 °F 81% 30.18 in 10.0 mi Calm Calm - N/A   Clear
6:48 AM 32.0 °F 26.6 °F 80% 30.40 in 10.0 mi Calm Calm - N/A   Clear
8:47 AM 39.2 °F 30.2 °F 70% 30.29 in 14.0 mi Calm Calm - N/A   Clear
8:50 AM 45 °F 34 °F 55% 30.27 in 19 mi Calm Calm - -  
9:48 AM 50.0 °F 32.0 °F 50% 30.44 in 14.0 mi NW 3.5 mph - N/A   Clear
10:45 AM 57.2 °F 28.4 °F 33% 30.42 in 14.0 mi NNW 3.5 mph - N/A   Clear
11:48 AM 64.4 °F 30.2 °F 28% 30.14 in 14.0 mi NE 3.5 mph - N/A   Clear
11:52 AM 65 °F 37 °F 24% 30.22 in 25 mi Calm Calm - -  
12:42 PM 66.2 °F 30.2 °F 26% 30.35 in 14.0 mi East 3.5 mph - N/A   Clear
1:40 PM 69.8 °F 30.2 °F 23% 30.29 in 14.0 mi SSE 3.5 mph - N/A   Clear
2:46 PM 71.6 °F 28.4 °F 20% 30.03 in 14.0 mi East 4.6 mph - N/A   Clear
2:50 PM 75 °F 36 °F 14% 30.01 in 25 mi Calm Calm - -   Scattered Clouds
3:40 PM 73.4 °F 26.6 °F 18% 30.22 in 14.0 mi SSE 3.5 mph - N/A   Clear
4:43 PM 73.4 °F 23.0 °F 15% 30.21 in 14.0 mi NNE 4.6 mph - N/A   Clear
5:45 PM 71 °F 35 °F 17% 29.88 in 25 mi ENE 2.2 mph - -  
5:47 PM 71.6 °F 21.2 °F 15% 30.01 in 14.0 mi NE 4.6 mph - N/A   Clear
6:04 PM 45 °F 32 °F 49% 30.11 in 19 mi Calm Calm - -  
6:42 PM 64.4 °F 24.8 °F 22% 30.22 in 12.0 mi NNE 3.5 mph - N/A   Clear
7:43 PM 57.2 °F 24.8 °F 29% 30.24 in 10.0 mi ENE 3.5 mph - N/A   Clear
8:40 PM 58 °F 36 °F 32% 29.86 in 6 mi Calm Calm - -  
8:52 PM 51.8 °F 26.6 °F 38% 30.26 in 10.0 mi NNW 5.8 mph - N/A   Clear
11:52 PM 52 °F 31 °F 32% 29.89 in 6 mi Calm Calm - -